Location: Unspecified
(0.0000°N, 0.0000°E)
Time: 20:02:06
(UTC+00:00)

Tiros 1 despin weight - Pass Details

Date: 27 May 2022
Orbit: 591 x 639 km, 48.2° (Epoch: 25 June)

Event Time Altitude Azimuth Distance (km) Brightness Sun altitude
Rises 03:47:34 0° 288° (WNW) 2,820 - -29.9°
Reaches altitude 10° 03:50:44 10° 264° (W) 1,929 - -29.2°
Maximum altitude 03:53:13 15° 229° (SW) 1,649 - -28.7°
Drops below altitude 10° 03:55:43 10° 195° (SSW) 1,948 - -28.1°
Sets 03:58:58 0° 171° (S) 2,865 - -27.4°
